TimePST,TemperatureF,Dew PointF,Humidity,Sea Level PressureIn,VisibilityMPH,Wind Direction,Wind SpeedMPH,Gust SpeedMPH,PrecipitationIn,Events,Conditions,WindDirDegrees,DateUTC
12:15 AM,17.6,3.2,53,30.14,10.0,ENE,4.6,-,N/A,,Clear,70,2013-01-03 08:15:00
12:35 AM,17.6,3.2,53,30.14,10.0,ENE,3.5,-,N/A,,Clear,70,2013-01-03 08:35:00
12:55 AM,17.6,3.2,53,30.14,10.0,East,4.6,-,N/A,,Clear,90,2013-01-03 08:55:00
1:15 AM,15.8,3.2,58,30.14,10.0,Calm,Calm,-,N/A,,Clear,0,2013-01-03 09:15:00
1:35 AM,15.8,3.2,58,30.14,10.0,East,4.6,-,N/A,,Clear,80,2013-01-03 09:35:00
1:55 AM,14.0,3.2,62,30.14,10.0,Calm,Calm,-,N/A,,Clear,0,2013-01-03 09:55:00
2:15 AM,14.0,3.2,62,30.14,10.0,Calm,Calm,-,N/A,,Clear,0,2013-01-03 10:15:00
2:35 AM,14.0,3.2,62,30.14,10.0,Calm,Calm,-,N/A,,Clear,0,2013-01-03 10:35:00
2:55 AM,14.0,3.2,62,30.13,10.0,Calm,Calm,-,N/A,,Clear,0,2013-01-03 10:55:00
3:15 AM,14.0,3.2,62,30.13,10.0,SE,3.5,-,N/A,,Clear,130,2013-01-03 11:15:00
3:35 AM,14.0,3.2,62,30.12,10.0,Calm,Calm,-,N/A,,Clear,0,2013-01-03 11:35:00
3:55 AM,12.2,3.2,67,30.12,10.0,ENE,3.5,-,N/A,,Clear,60,2013-01-03 11:55:00
4:15 AM,12.2,3.2,67,30.12,10.0,ENE,3.5,-,N/A,,Clear,60,2013-01-03 12:15:00
4:35 AM,14.0,3.2,62,30.14,10.0,Calm,Calm,-,N/A,,Clear,0,2013-01-03 12:35:00
4:55 AM,14.0,3.2,62,30.14,10.0,ENE,3.5,-,N/A,,Clear,60,2013-01-03 12:55:00
5:15 AM,15.8,3.2,58,30.14,10.0,Calm,Calm,-,N/A,,Clear,0,2013-01-03 13:15:00
5:35 AM,14.0,3.2,62,30.14,10.0,East,5.8,-,N/A,,Clear,80,2013-01-03 13:35:00
5:55 AM,14.0,3.2,62,30.14,10.0,Calm,Calm,-,N/A,,Clear,0,2013-01-03 13:55:00
6:15 AM,14.0,3.2,62,30.15,10.0,ENE,4.6,-,N/A,,Clear,60,2013-01-03 14:15:00
6:35 AM,14.0,5.0,67,30.16,10.0,Calm,Calm,-,N/A,,Clear,0,2013-01-03 14:35:00
6:55 AM,12.2,3.2,67,30.16,10.0,Calm,Calm,-,N/A,,Clear,0,2013-01-03 14:55:00
7:15 AM,12.2,3.2,67,30.17,10.0,Calm,Calm,-,N/A,,Clear,0,2013-01-03 15:15:00
7:35 AM,14.0,3.2,62,30.17,10.0,Calm,Calm,-,N/A,,Clear,0,2013-01-03 15:35:00
7:55 AM,15.8,5.0,62,30.18,10.0,Calm,Calm,-,N/A,,Clear,0,2013-01-03 15:55:00
8:15 AM,19.4,5.0,54,30.19,10.0,NNE,3.5,-,N/A,,Clear,30,2013-01-03 16:15:00
8:35 AM,24.8,6.8,46,30.19,10.0,Calm,Calm,-,N/A,,Clear,0,2013-01-03 16:35:00
8:55 AM,30.2,3.2,32,30.19,10.0,East,5.8,-,N/A,,Clear,80,2013-01-03 16:55:00
9:15 AM,32.0,-0.4,25,30.20,10.0,ESE,5.8,-,N/A,,Clear,110,2013-01-03 17:15:00
9:35 AM,33.8,-5.8,18,30.21,10.0,ENE,11.5,-,N/A,,Clear,70,2013-01-03 17:35:00
9:55 AM,35.6,-7.6,16,30.22,10.0,ENE,8.1,-,N/A,,Clear,60,2013-01-03 17:55:00
10:15 AM,35.6,-7.6,16,30.22,10.0,ENE,8.1,-,N/A,,Clear,60,2013-01-03 18:15:00
10:35 AM,37.4,-7.6,15,30.21,10.0,ENE,6.9,-,N/A,,Clear,70,2013-01-03 18:35:00
10:55 AM,39.2,-7.6,14,30.21,10.0,ENE,9.2,-,N/A,,Clear,70,2013-01-03 18:55:00
11:15 AM,41.0,-7.6,13,30.20,10.0,East,9.2,-,N/A,,Clear,80,2013-01-03 19:15:00
11:35 AM,41.0,-5.8,14,30.19,10.0,ENE,8.1,-,N/A,,Clear,70,2013-01-03 19:35:00
11:55 AM,41.0,-5.8,14,30.18,10.0,East,8.1,-,N/A,,Clear,80,2013-01-03 19:55:00
12:15 PM,41.0,-5.8,14,30.17,10.0,ENE,10.4,-,N/A,,Clear,70,2013-01-03 20:15:00
12:35 PM,39.2,-4.0,16,30.17,10.0,East,12.7,-,N/A,,Clear,80,2013-01-03 20:35:00
12:55 PM,37.4,-5.8,16,30.17,10.0,ENE,12.7,-,N/A,,Clear,70,2013-01-03 20:55:00
1:15 PM,37.4,-5.8,16,30.17,10.0,East,10.4,-,N/A,,Clear,80,2013-01-03 21:15:00
1:55 PM,37.4,-4.0,17,30.17,10.0,East,11.5,-,N/A,,Clear,80,2013-01-03 21:55:00
2:15 PM,39.2,-5.8,15,30.18,10.0,ENE,9.2,-,N/A,,Clear,70,2013-01-03 22:15:00
2:35 PM,39.2,-5.8,15,30.18,10.0,East,9.2,-,N/A,,Clear,80,2013-01-03 22:35:00
2:55 PM,39.2,-9.4,12,30.19,10.0,East,8.1,-,N/A,,Clear,90,2013-01-03 22:55:00
3:15 PM,41.0,-11.2,11,30.19,10.0,ESE,8.1,-,N/A,,Clear,110,2013-01-03 23:15:00
3:35 PM,41.0,-16.6,8,30.19,10.0,East,6.9,-,N/A,,Clear,80,2013-01-03 23:35:00
3:55 PM,39.2,-13.0,10,30.19,10.0,East,6.9,-,N/A,,Clear,80,2013-01-03 23:55:00
4:15 PM,37.4,-11.2,12,30.19,10.0,East,4.6,-,N/A,,Clear,90,2013-01-04 00:15:00
4:35 PM,33.8,-0.4,23,30.19,10.0,Calm,Calm,-,N/A,,Clear,0,2013-01-04 00:35:00
4:55 PM,32.0,-0.4,25,30.19,10.0,Calm,Calm,-,N/A,,Clear,0,2013-01-04 00:55:00
5:15 PM,28.4,-0.4,29,30.19,10.0,Calm,Calm,-,N/A,,Clear,0,2013-01-04 01:15:00
5:35 PM,26.6,-0.4,31,30.20,10.0,Calm,Calm,-,N/A,,Clear,0,2013-01-04 01:35:00
5:55 PM,26.6,1.4,34,30.20,10.0,Calm,Calm,-,N/A,,Clear,0,2013-01-04 01:55:00
6:15 PM,24.8,-0.4,34,30.20,10.0,Calm,Calm,-,N/A,,Clear,0,2013-01-04 02:15:00
6:35 PM,23.0,1.4,39,30.21,7.0,Calm,Calm,-,N/A,,Clear,0,2013-01-04 02:35:00
6:55 PM,23.0,1.4,39,30.20,10.0,Calm,Calm,-,N/A,,Clear,0,2013-01-04 02:55:00
7:15 PM,21.2,3.2,46,30.21,7.0,Calm,Calm,-,N/A,,Clear,0,2013-01-04 03:15:00
7:35 PM,19.4,1.4,46,30.21,10.0,Calm,Calm,-,N/A,,Clear,0,2013-01-04 03:35:00
7:55 PM,19.4,3.2,49,30.22,10.0,Calm,Calm,-,N/A,,Clear,0,2013-01-04 03:55:00
8:15 PM,19.4,1.4,46,30.22,10.0,Calm,Calm,-,N/A,,Clear,0,2013-01-04 04:15:00
8:35 PM,17.6,-0.4,45,30.22,10.0,Calm,Calm,-,N/A,,Clear,0,2013-01-04 04:35:00
8:55 PM,17.6,1.4,49,30.22,10.0,Calm,Calm,-,N/A,,Clear,0,2013-01-04 04:55:00
9:15 PM,15.8,-0.4,49,30.23,7.0,Calm,Calm,-,N/A,,Clear,0,2013-01-04 05:15:00
9:35 PM,15.8,-0.4,49,30.23,10.0,Calm,Calm,-,N/A,,Clear,0,2013-01-04 05:35:00
9:55 PM,14.0,-0.4,53,30.23,10.0,Calm,Calm,-,N/A,,Clear,0,2013-01-04 05:55:00
10:15 PM,14.0,-2.2,49,30.23,10.0,Calm,Calm,-,N/A,,Clear,0,2013-01-04 06:15:00
10:35 PM,14.0,-2.2,49,30.23,10.0,Calm,Calm,-,N/A,,Clear,0,2013-01-04 06:35:00
10:55 PM,12.2,-2.2,53,30.23,10.0,Calm,Calm,-,N/A,,Clear,0,2013-01-04 06:55:00
11:15 PM,12.2,-0.4,57,30.23,10.0,Calm,Calm,-,N/A,,Clear,0,2013-01-04 07:15:00
11:35 PM,12.2,-0.4,57,30.23,10.0,Calm,Calm,-,N/A,,Clear,0,2013-01-04 07:35:00
11:55 PM,12.2,-2.2,53,30.23,10.0,Calm,Calm,-,N/A,,Clear,0,2013-01-04 07:55:00